Location: Strawberry
(45.6646°N, 111.9596°W)
Time: 20:46:24
(UTC+00:00)

Envisat - Pass Details

Date: 26 August 2022
Orbit: 764 x 765 km, 98.2° (Epoch: 27 September)

Event Time Altitude Azimuth Distance (km) Brightness Sun altitude
Rises 10:57:16 0° 25° (NNE) 3,241 7.3 -17.2°
Reaches altitude 10° 11:00:00 10° 38° (NE) 2,309 6.7 -16.8°
Maximum altitude 11:04:08 25° 93° (E) 1,518 5.1 -16.2°
Drops below altitude 10° 11:08:15 10° 148° (SSE) 2,294 5.5 -15.6°
Sets 11:10:56 0° 161° (SSE) 3,215 6.1 -15.3°
